カタログに戻る

STARLINK-34657

運用中通信VLEO
NORAD 64775·PAYLOAD·🇺🇸 United States

打ち上げ Jul 8, 2025 から Cape Canaveral Space Force Station

Loading…

次のパス (今後24時間)

TLE

最新Source: CelesTrak SupGP

元期: Sep 14, 2026, 20:54 UTC

1 64775C 25147W   26257.87131944 -.00016323  00000+0 -48240-3 0  2571
2 64775  53.1576  80.0693 0001270  88.8638 213.6261 15.34390138    14

AllMySatでSTARLINK-34657をリアルタイム追跡

Download on the App Store